Year,Month,Day,Hour,Minute,Value (Times are PST for temperature in C)
2012,07,04,00,00,11.20
2012,07,04,00,01,11.20
2012,07,04,00,02,11.20
2012,07,04,00,03,11.10
2012,07,04,00,04,11.10
2012,07,04,00,05,11.10
2012,07,04,00,06,11.10
2012,07,04,00,07,11.10
2012,07,04,00,08,11.10
2012,07,04,00,09,11.00
2012,07,04,00,10,11.00
2012,07,04,00,11,11.00
2012,07,04,00,12,11.00
2012,07,04,00,13,11.00
2012,07,04,00,14,11.00
2012,07,04,00,15,11.00
2012,07,04,00,16,11.00
2012,07,04,00,17,11.00
2012,07,04,00,18,11.00
2012,07,04,00,19,11.00
2012,07,04,00,20,11.00
2012,07,04,00,21,10.90
2012,07,04,00,22,10.90
2012,07,04,00,23,10.90
2012,07,04,00,24,10.90
2012,07,04,00,25,10.90
2012,07,04,00,26,10.90
2012,07,04,00,27,10.90
2012,07,04,00,28,10.90
2012,07,04,00,29,10.90
2012,07,04,00,30,10.90
2012,07,04,00,31,10.90
2012,07,04,00,32,10.90
2012,07,04,00,33,10.90
2012,07,04,00,34,10.90
2012,07,04,00,35,10.90
2012,07,04,00,36,10.90
2012,07,04,00,37,10.90
2012,07,04,00,38,10.90
2012,07,04,00,39,10.90
2012,07,04,00,40,10.90
2012,07,04,00,41,10.80
2012,07,04,00,42,10.80
2012,07,04,00,43,10.80
2012,07,04,00,44,10.80
2012,07,04,00,45,10.80
2012,07,04,00,46,10.80
2012,07,04,00,47,10.80
2012,07,04,00,48,10.70
2012,07,04,00,49,10.70
2012,07,04,00,50,10.70
2012,07,04,00,51,10.70
2012,07,04,00,52,10.70
2012,07,04,00,53,10.60
2012,07,04,00,54,10.60
2012,07,04,00,55,10.60
2012,07,04,00,56,10.60
2012,07,04,00,57,10.50
2012,07,04,00,58,10.50
2012,07,04,00,59,10.40
2012,07,04,01,00,10.40
2012,07,04,01,01,10.40
2012,07,04,01,02,10.40
2012,07,04,01,03,10.40
2012,07,04,01,04,10.40
2012,07,04,01,05,10.40
2012,07,04,01,06,10.30
2012,07,04,01,07,10.30
2012,07,04,01,08,10.30
2012,07,04,01,09,10.30
2012,07,04,01,10,10.30
2012,07,04,01,11,10.30
2012,07,04,01,12,10.30
2012,07,04,01,13,10.30
2012,07,04,01,14,10.30
2012,07,04,01,15,10.30
2012,07,04,01,16,10.30
2012,07,04,01,17,10.30
2012,07,04,01,18,10.30
2012,07,04,01,19,10.30
2012,07,04,01,20,10.40
2012,07,04,01,21,10.40
2012,07,04,01,22,10.50
2012,07,04,01,23,10.60
2012,07,04,01,24,10.80
2012,07,04,01,25,10.80
2012,07,04,01,26,10.90
2012,07,04,01,27,10.90
2012,07,04,01,28,10.90
2012,07,04,01,29,10.90
2012,07,04,01,30,10.90
2012,07,04,01,31,10.90
2012,07,04,01,32,10.90
2012,07,04,01,33,10.90
2012,07,04,01,34,10.90
2012,07,04,01,35,10.90
2012,07,04,01,36,10.90
2012,07,04,01,37,10.80
2012,07,04,01,38,10.80
2012,07,04,01,39,10.80
2012,07,04,01,40,10.80
2012,07,04,01,41,10.80
2012,07,04,01,42,10.80
2012,07,04,01,43,10.80
2012,07,04,01,44,10.80
2012,07,04,01,45,10.80
2012,07,04,01,46,10.80
2012,07,04,01,47,10.80
2012,07,04,01,48,10.80
2012,07,04,01,49,10.80
2012,07,04,01,50,10.80
2012,07,04,01,51,10.80
2012,07,04,01,52,10.80
2012,07,04,01,53,10.80
2012,07,04,01,54,10.80
2012,07,04,01,55,10.80
2012,07,04,01,56,10.80
2012,07,04,01,57,10.80
2012,07,04,01,58,10.80
2012,07,04,01,59,10.70
2012,07,04,02,00,10.70
2012,07,04,02,01,10.80
2012,07,04,02,02,10.80
2012,07,04,02,03,10.80
2012,07,04,02,04,10.90
2012,07,04,02,05,10.90
2012,07,04,02,06,10.90
2012,07,04,02,07,10.90
2012,07,04,02,08,11.00
2012,07,04,02,09,11.00
2012,07,04,02,10,10.90
2012,07,04,02,11,10.90
2012,07,04,02,12,10.90
2012,07,04,02,13,10.90
2012,07,04,02,14,10.80
2012,07,04,02,15,10.80
2012,07,04,02,16,10.90
2012,07,04,02,17,10.90
2012,07,04,02,18,10.90
2012,07,04,02,19,11.00
2012,07,04,02,20,11.00
2012,07,04,02,21,11.10
2012,07,04,02,22,11.10
2012,07,04,02,23,11.10
2012,07,04,02,24,11.10
2012,07,04,02,25,11.20
2012,07,04,02,26,11.20
2012,07,04,02,27,11.20
2012,07,04,02,28,11.20
2012,07,04,02,29,11.20
2012,07,04,02,30,11.20
2012,07,04,02,31,11.20
2012,07,04,02,32,11.20
2012,07,04,02,33,11.10
2012,07,04,02,34,11.10
2012,07,04,02,35,11.10
2012,07,04,02,36,11.10
2012,07,04,02,37,11.10
2012,07,04,02,38,11.10
2012,07,04,02,39,11.00
2012,07,04,02,40,11.00
2012,07,04,02,41,11.00
2012,07,04,02,42,11.00
2012,07,04,02,43,11.00
2012,07,04,02,44,11.00
2012,07,04,02,45,10.90
2012,07,04,02,46,11.00
2012,07,04,02,47,10.90
2012,07,04,02,48,10.90
2012,07,04,02,49,10.90
2012,07,04,02,50,10.90
2012,07,04,02,51,11.00
2012,07,04,02,52,11.00
2012,07,04,02,53,10.90
2012,07,04,02,54,10.90
2012,07,04,02,55,10.90
2012,07,04,02,56,10.90
2012,07,04,02,57,10.90
2012,07,04,02,58,10.90
2012,07,04,02,59,10.90
2012,07,04,03,00,10.80
2012,07,04,03,01,10.80
2012,07,04,03,02,10.80
2012,07,04,03,03,10.80
2012,07,04,03,04,10.80
2012,07,04,03,05,10.80
2012,07,04,03,06,10.80
2012,07,04,03,07,10.80
2012,07,04,03,08,10.70
2012,07,04,03,09,10.70
2012,07,04,03,10,10.70
2012,07,04,03,11,10.70
2012,07,04,03,12,10.60
2012,07,04,03,13,10.50
2012,07,04,03,14,10.50
2012,07,04,03,15,10.40
2012,07,04,03,16,10.30
2012,07,04,03,17,10.30
2012,07,04,03,18,10.30
2012,07,04,03,19,10.20
2012,07,04,03,20,10.20
2012,07,04,03,21,10.20
2012,07,04,03,22,10.20
2012,07,04,03,23,10.20
2012,07,04,03,24,10.20
2012,07,04,03,25,10.20
2012,07,04,03,26,10.30
2012,07,04,03,27,10.30
2012,07,04,03,28,10.30
2012,07,04,03,29,10.30
2012,07,04,03,30,10.30
2012,07,04,03,31,10.30
2012,07,04,03,32,10.20
2012,07,04,03,33,10.20
2012,07,04,03,34,10.20
2012,07,04,03,35,10.20
2012,07,04,03,36,10.20
2012,07,04,03,37,10.20
2012,07,04,03,38,10.20
2012,07,04,03,39,10.20
2012,07,04,03,40,10.20
2012,07,04,03,41,10.20
2012,07,04,03,42,10.20
2012,07,04,03,43,10.20
2012,07,04,03,44,10.20
2012,07,04,03,45,10.20
2012,07,04,03,46,10.10
2012,07,04,03,47,10.10
2012,07,04,03,48,10.10
2012,07,04,03,49,10.00
2012,07,04,03,50,10.00
2012,07,04,03,51,9.90
2012,07,04,03,52,9.90
2012,07,04,03,53,9.80
2012,07,04,03,54,9.80
2012,07,04,03,55,9.70
2012,07,04,03,56,9.70
2012,07,04,03,57,9.70
2012,07,04,03,58,9.60
2012,07,04,03,59,9.60
2012,07,04,04,00,9.50
2012,07,04,04,01,9.50
2012,07,04,04,02,9.40
2012,07,04,04,03,9.40
2012,07,04,04,04,9.30
2012,07,04,04,05,9.30
2012,07,04,04,06,9.30
2012,07,04,04,07,9.30
2012,07,04,04,08,9.30
2012,07,04,04,09,9.30
2012,07,04,04,10,9.30
2012,07,04,04,11,9.30
2012,07,04,04,12,9.20
2012,07,04,04,13,9.20
2012,07,04,04,14,9.20
2012,07,04,04,15,9.10
2012,07,04,04,16,9.10
2012,07,04,04,17,9.10
2012,07,04,04,18,9.10
2012,07,04,04,19,9.10
2012,07,04,04,20,9.10
2012,07,04,04,21,9.10
2012,07,04,04,22,9.10
2012,07,04,04,23,9.00
2012,07,04,04,24,9.00
2012,07,04,04,25,8.90
2012,07,04,04,26,8.90
2012,07,04,04,27,8.80
2012,07,04,04,28,8.80
2012,07,04,04,29,8.80
2012,07,04,04,30,8.70
2012,07,04,04,31,8.70
2012,07,04,04,32,8.70
2012,07,04,04,33,8.70
2012,07,04,04,34,8.70
2012,07,04,04,35,8.70
2012,07,04,04,36,8.60
2012,07,04,04,37,8.60
2012,07,04,04,38,8.60
2012,07,04,04,39,8.50
2012,07,04,04,40,8.50
2012,07,04,04,41,8.50
2012,07,04,04,42,8.40
2012,07,04,04,43,8.40
2012,07,04,04,44,8.40
2012,07,04,04,45,8.40
2012,07,04,04,46,8.50
2012,07,04,04,47,8.50
2012,07,04,04,48,8.60
2012,07,04,04,49,8.60
2012,07,04,04,50,8.60
2012,07,04,04,51,8.60
2012,07,04,04,52,8.60
2012,07,04,04,53,8.60
2012,07,04,04,54,8.60
2012,07,04,04,55,8.60
2012,07,04,04,56,8.60
2012,07,04,04,57,8.60
2012,07,04,04,58,8.50
2012,07,04,04,59,8.50
2012,07,04,05,00,8.50
2012,07,04,05,01,8.40
2012,07,04,05,02,8.40
2012,07,04,05,03,8.40
2012,07,04,05,04,8.40
2012,07,04,05,05,8.40
2012,07,04,05,06,8.30
2012,07,04,05,07,8.30
2012,07,04,05,08,8.30
2012,07,04,05,09,8.30
2012,07,04,05,10,8.30
2012,07,04,05,11,8.30
2012,07,04,05,12,8.20
2012,07,04,05,13,8.20
2012,07,04,05,14,8.20
2012,07,04,05,15,8.20
2012,07,04,05,16,8.10
2012,07,04,05,17,8.10
2012,07,04,05,18,8.10
2012,07,04,05,19,8.10
2012,07,04,05,20,8.10
2012,07,04,05,21,8.10
2012,07,04,05,22,8.00
2012,07,04,05,23,8.00
2012,07,04,05,24,8.00
2012,07,04,05,25,8.00
2012,07,04,05,26,8.00
2012,07,04,05,27,8.00
2012,07,04,05,28,8.00
2012,07,04,05,29,8.00
2012,07,04,05,30,8.00
2012,07,04,05,31,8.00
2012,07,04,05,32,8.00
2012,07,04,05,33,8.00
2012,07,04,05,34,8.00
2012,07,04,05,35,8.00
2012,07,04,05,36,8.00
2012,07,04,05,37,8.10
2012,07,04,05,38,8.10
2012,07,04,05,39,8.10
2012,07,04,05,40,8.10
2012,07,04,05,41,8.10
2012,07,04,05,42,8.10
2012,07,04,05,43,8.10
2012,07,04,05,44,8.20
2012,07,04,05,45,8.20
2012,07,04,05,46,8.20
2012,07,04,05,47,8.20
2012,07,04,05,48,8.20
2012,07,04,05,49,8.20
2012,07,04,05,50,8.20
2012,07,04,05,51,8.20
2012,07,04,05,52,8.20
2012,07,04,05,53,8.20
2012,07,04,05,54,8.20
2012,07,04,05,55,8.20
2012,07,04,05,56,8.20
2012,07,04,05,57,8.20
2012,07,04,05,58,8.20
2012,07,04,05,59,8.20
2012,07,04,06,00,8.20
2012,07,04,06,01,8.20
2012,07,04,06,02,8.20
2012,07,04,06,03,8.20
2012,07,04,06,04,8.20
2012,07,04,06,05,8.20
2012,07,04,06,06,8.20
2012,07,04,06,07,8.30
2012,07,04,06,08,8.30
2012,07,04,06,09,8.30
2012,07,04,06,10,8.30
2012,07,04,06,11,8.30
2012,07,04,06,12,8.30
2012,07,04,06,13,8.40
2012,07,04,06,14,8.40
2012,07,04,06,15,8.50
2012,07,04,06,16,8.60
2012,07,04,06,17,8.70
2012,07,04,06,18,8.80
2012,07,04,06,19,8.80
2012,07,04,06,20,8.90
2012,07,04,06,21,8.90
2012,07,04,06,22,9.00
2012,07,04,06,23,9.00
2012,07,04,06,24,9.00
2012,07,04,06,25,9.00
2012,07,04,06,26,9.10
2012,07,04,06,27,9.10
2012,07,04,06,28,9.10
2012,07,04,06,29,9.10
2012,07,04,06,30,9.10
2012,07,04,06,31,9.10
2012,07,04,06,32,9.10
2012,07,04,06,33,9.10
2012,07,04,06,34,9.10
2012,07,04,06,35,9.10
2012,07,04,06,36,9.10
2012,07,04,06,37,9.20
2012,07,04,06,38,9.20
2012,07,04,06,39,9.20
2012,07,04,06,40,9.20
2012,07,04,06,41,9.20
2012,07,04,06,42,9.20
2012,07,04,06,43,9.20
2012,07,04,06,44,9.20
2012,07,04,06,45,9.20
2012,07,04,06,46,9.20
2012,07,04,06,47,9.20
2012,07,04,06,48,9.20
2012,07,04,06,49,9.20
2012,07,04,06,50,9.20
2012,07,04,06,51,9.20
2012,07,04,06,52,9.20
2012,07,04,06,53,9.30
2012,07,04,06,54,9.30
2012,07,04,06,55,9.30
2012,07,04,06,56,9.30
2012,07,04,06,57,9.30
2012,07,04,06,58,9.30
2012,07,04,06,59,9.30
2012,07,04,07,00,9.30
2012,07,04,07,01,9.30
2012,07,04,07,02,9.30
2012,07,04,07,03,9.30
2012,07,04,07,04,9.30
2012,07,04,07,05,9.30
2012,07,04,07,06,9.30
2012,07,04,07,07,9.30
2012,07,04,07,08,9.40
2012,07,04,07,09,9.40
2012,07,04,07,10,9.40
2012,07,04,07,11,9.50
2012,07,04,07,12,9.50
2012,07,04,07,13,9.50
2012,07,04,07,14,9.60
2012,07,04,07,15,9.60
2012,07,04,07,16,9.60
2012,07,04,07,17,9.60
2012,07,04,07,18,9.70
2012,07,04,07,19,9.70
2012,07,04,07,20,9.70
2012,07,04,07,21,9.70
2012,07,04,07,22,9.80
2012,07,04,07,23,9.80
2012,07,04,07,24,9.80
2012,07,04,07,25,9.90
2012,07,04,07,26,9.90
2012,07,04,07,27,10.00
2012,07,04,07,28,10.00
2012,07,04,07,29,10.10
2012,07,04,07,30,10.20
2012,07,04,07,31,10.20
2012,07,04,07,32,10.30
2012,07,04,07,33,10.40
2012,07,04,07,34,10.50
2012,07,04,07,35,10.70
2012,07,04,07,36,10.80
2012,07,04,07,37,10.80
2012,07,04,07,38,10.90
2012,07,04,07,39,11.00
2012,07,04,07,40,11.10
2012,07,04,07,41,11.20
2012,07,04,07,42,11.30
2012,07,04,07,43,11.30
2012,07,04,07,44,11.40
2012,07,04,07,45,11.40
2012,07,04,07,46,11.50
2012,07,04,07,47,11.60
2012,07,04,07,48,11.70
2012,07,04,07,49,11.80
2012,07,04,07,50,11.90
2012,07,04,07,51,12.00
2012,07,04,07,52,12.10
2012,07,04,07,53,12.20
2012,07,04,07,54,12.40
2012,07,04,07,55,12.50
2012,07,04,07,56,12.60
2012,07,04,07,57,12.70
2012,07,04,07,58,12.80
2012,07,04,07,59,12.90
2012,07,04,08,00,13.00
2012,07,04,08,01,13.10
2012,07,04,08,02,13.10
2012,07,04,08,03,13.00
2012,07,04,08,04,13.00
2012,07,04,08,05,12.90
2012,07,04,08,06,12.90
2012,07,04,08,07,12.90
2012,07,04,08,08,12.90
2012,07,04,08,09,12.90
2012,07,04,08,10,12.90
2012,07,04,08,11,13.00
2012,07,04,08,12,13.00
2012,07,04,08,13,13.00
2012,07,04,08,14,13.00
2012,07,04,08,15,13.00
2012,07,04,08,16,13.00
2012,07,04,08,17,13.00
2012,07,04,08,18,13.00
2012,07,04,08,19,13.00
2012,07,04,08,20,13.00
2012,07,04,08,21,13.00
2012,07,04,08,22,12.90
2012,07,04,08,23,12.90
2012,07,04,08,24,12.90
2012,07,04,08,25,12.80
2012,07,04,08,26,12.80
2012,07,04,08,27,12.80
2012,07,04,08,28,12.80
2012,07,04,08,29,12.80
2012,07,04,08,30,12.80
2012,07,04,08,31,12.80
2012,07,04,08,32,12.90
2012,07,04,08,33,12.90
2012,07,04,08,34,13.00
2012,07,04,08,35,13.10
2012,07,04,08,36,13.20
2012,07,04,08,37,13.30
2012,07,04,08,38,13.30
2012,07,04,08,39,13.40
2012,07,04,08,40,13.40
2012,07,04,08,41,13.30
2012,07,04,08,42,13.30
2012,07,04,08,43,13.30
2012,07,04,08,44,13.30
2012,07,04,08,45,13.30
2012,07,04,08,46,13.30
2012,07,04,08,47,13.20
2012,07,04,08,48,13.20
2012,07,04,08,49,13.30
2012,07,04,08,50,13.30
2012,07,04,08,51,13.30
2012,07,04,08,52,13.30
2012,07,04,08,53,13.30
2012,07,04,08,54,13.30
2012,07,04,08,55,13.40
2012,07,04,08,56,13.50
2012,07,04,08,57,13.60
2012,07,04,08,58,13.70
2012,07,04,08,59,13.80
2012,07,04,09,00,13.80
2012,07,04,09,01,13.90
2012,07,04,09,02,14.00
2012,07,04,09,03,14.00
2012,07,04,09,04,14.10
2012,07,04,09,05,14.10
2012,07,04,09,06,14.20
2012,07,04,09,07,14.20
2012,07,04,09,08,14.20
2012,07,04,09,09,14.10
2012,07,04,09,10,14.10
2012,07,04,09,11,14.10
2012,07,04,09,12,14.10
2012,07,04,09,13,14.10
2012,07,04,09,14,14.20
2012,07,04,09,15,14.30
2012,07,04,09,16,14.40
2012,07,04,09,17,14.50
2012,07,04,09,18,14.50
2012,07,04,09,19,14.60
2012,07,04,09,20,14.70
2012,07,04,09,21,14.70
2012,07,04,09,22,14.70
2012,07,04,09,23,14.70
2012,07,04,09,24,14.70
2012,07,04,09,25,14.60
2012,07,04,09,26,14.60
2012,07,04,09,27,14.60
2012,07,04,09,28,14.60
2012,07,04,09,29,14.60
2012,07,04,09,30,14.70
2012,07,04,09,31,14.70
2012,07,04,09,32,14.80
2012,07,04,09,33,14.80
2012,07,04,09,34,14.80
2012,07,04,09,35,14.80
2012,07,04,09,36,14.80
2012,07,04,09,37,14.80
2012,07,04,09,38,14.80
2012,07,04,09,39,14.90
2012,07,04,09,40,14.90
2012,07,04,09,41,15.00
2012,07,04,09,42,15.10
2012,07,04,09,43,15.10
2012,07,04,09,44,15.10
2012,07,04,09,45,15.10
2012,07,04,09,46,15.00
2012,07,04,09,47,15.00
2012,07,04,09,48,14.90
2012,07,04,09,49,14.90
2012,07,04,09,50,14.90
2012,07,04,09,51,14.90
2012,07,04,09,52,15.00
2012,07,04,09,53,15.00
2012,07,04,09,54,15.10
2012,07,04,09,55,15.20
2012,07,04,09,56,15.30
2012,07,04,09,57,15.30
2012,07,04,09,58,15.30
2012,07,04,09,59,15.20
2012,07,04,10,00,15.20
2012,07,04,10,01,15.20
2012,07,04,10,02,15.10
2012,07,04,10,03,15.00
2012,07,04,10,04,14.90
2012,07,04,10,05,15.00
2012,07,04,10,06,15.10
2012,07,04,10,07,15.10
2012,07,04,10,08,15.10
2012,07,04,10,09,15.10
2012,07,04,10,10,15.00
2012,07,04,10,11,14.90
2012,07,04,10,12,14.80
2012,07,04,10,13,14.80
2012,07,04,10,14,14.80
2012,07,04,10,15,14.80
2012,07,04,10,16,14.90
2012,07,04,10,17,14.90
2012,07,04,10,18,14.90
2012,07,04,10,19,14.90
2012,07,04,10,20,14.90
2012,07,04,10,21,14.90
2012,07,04,10,22,15.00
2012,07,04,10,23,15.10
2012,07,04,10,24,15.20
2012,07,04,10,25,15.20
2012,07,04,10,26,15.30
2012,07,04,10,27,15.30
2012,07,04,10,28,15.30
2012,07,04,10,29,15.10
2012,07,04,10,30,15.00
2012,07,04,10,31,15.00
2012,07,04,10,32,15.10
2012,07,04,10,33,15.10
2012,07,04,10,34,15.10
2012,07,04,10,35,15.10
2012,07,04,10,36,15.20
2012,07,04,10,37,15.10
2012,07,04,10,38,15.10
2012,07,04,10,39,15.10
2012,07,04,10,40,15.10
2012,07,04,10,41,15.20
2012,07,04,10,42,15.20
2012,07,04,10,43,15.30
2012,07,04,10,44,15.30
2012,07,04,10,45,15.30
2012,07,04,10,46,15.20
2012,07,04,10,47,15.10
2012,07,04,10,48,15.10
2012,07,04,10,49,15.10
2012,07,04,10,50,15.20
2012,07,04,10,51,15.10
2012,07,04,10,52,15.10
2012,07,04,10,53,15.10
2012,07,04,10,54,15.00
2012,07,04,10,55,14.90
2012,07,04,10,56,14.90
2012,07,04,10,57,14.80
2012,07,04,10,58,14.90
2012,07,04,10,59,14.90
2012,07,04,11,00,14.90
2012,07,04,11,01,15.00
2012,07,04,11,02,15.00
2012,07,04,11,03,15.00
2012,07,04,11,04,15.00
2012,07,04,11,05,15.00
2012,07,04,11,06,15.10
2012,07,04,11,07,15.10
2012,07,04,11,08,15.10
2012,07,04,11,09,15.00
2012,07,04,11,10,15.10
2012,07,04,11,11,15.10
2012,07,04,11,12,15.00
2012,07,04,11,13,14.90
2012,07,04,11,14,14.90
2012,07,04,11,15,14.90
2012,07,04,11,16,15.00
2012,07,04,11,17,15.10
2012,07,04,11,18,15.10
2012,07,04,11,19,15.10
2012,07,04,11,20,15.20
2012,07,04,11,21,15.20
2012,07,04,11,22,15.30
2012,07,04,11,23,15.30
2012,07,04,11,24,15.30
2012,07,04,11,25,15.20
2012,07,04,11,26,15.20
2012,07,04,11,27,15.10
2012,07,04,11,28,15.10
2012,07,04,11,29,15.00
2012,07,04,11,30,15.10
2012,07,04,11,31,15.10
2012,07,04,11,32,15.20
2012,07,04,11,33,15.30
2012,07,04,11,34,15.30
2012,07,04,11,35,15.30
2012,07,04,11,36,15.20
2012,07,04,11,37,15.20
2012,07,04,11,38,15.20
2012,07,04,11,39,15.30
2012,07,04,11,40,15.30
2012,07,04,11,41,15.40
2012,07,04,11,42,15.40
2012,07,04,11,43,15.40
2012,07,04,11,44,15.40
2012,07,04,11,45,15.40
2012,07,04,11,46,15.50
2012,07,04,11,47,15.60
2012,07,04,11,48,15.60
2012,07,04,11,49,15.60
2012,07,04,11,50,15.60
2012,07,04,11,51,15.60
2012,07,04,11,52,15.60
2012,07,04,11,53,15.50
2012,07,04,11,54,15.50
2012,07,04,11,55,15.60
2012,07,04,11,56,15.60
2012,07,04,11,57,15.70
2012,07,04,11,58,15.80
2012,07,04,11,59,15.90
2012,07,04,12,00,15.90
2012,07,04,12,01,15.90
2012,07,04,12,02,16.00
2012,07,04,12,03,16.10
2012,07,04,12,04,16.00
2012,07,04,12,05,15.90
2012,07,04,12,06,15.90
2012,07,04,12,07,15.90
2012,07,04,12,08,15.90
2012,07,04,12,09,15.80
2012,07,04,12,10,15.80
2012,07,04,12,11,15.70
2012,07,04,12,12,15.50
2012,07,04,12,13,15.50
2012,07,04,12,14,15.60
2012,07,04,12,15,15.60
2012,07,04,12,16,15.50
2012,07,04,12,17,15.40
2012,07,04,12,18,15.30
2012,07,04,12,19,15.20
2012,07,04,12,20,15.10
2012,07,04,12,21,15.00
2012,07,04,12,22,14.90
2012,07,04,12,23,14.80
2012,07,04,12,24,14.70
2012,07,04,12,25,14.70
2012,07,04,12,26,14.70
2012,07,04,12,27,14.60
2012,07,04,12,28,14.60
2012,07,04,12,29,14.60
2012,07,04,12,30,14.50
2012,07,04,12,31,14.50
2012,07,04,12,32,14.50
2012,07,04,12,33,14.60
2012,07,04,12,34,14.70
2012,07,04,12,35,14.90
2012,07,04,12,36,15.00
2012,07,04,12,37,15.10
2012,07,04,12,38,15.10
2012,07,04,12,39,15.10
2012,07,04,12,40,15.20
2012,07,04,12,41,15.20
2012,07,04,12,42,15.20
2012,07,04,12,43,15.30
2012,07,04,12,44,15.50
2012,07,04,12,45,15.60
2012,07,04,12,46,15.60
2012,07,04,12,47,15.60
2012,07,04,12,48,15.60
2012,07,04,12,49,15.50
2012,07,04,12,50,15.50
2012,07,04,12,51,15.40
2012,07,04,12,52,15.40
2012,07,04,12,53,15.50
2012,07,04,12,54,15.50
2012,07,04,12,55,15.60
2012,07,04,12,56,15.50
2012,07,04,12,57,15.50
2012,07,04,12,58,15.50
2012,07,04,12,59,15.40
2012,07,04,13,00,15.40
2012,07,04,13,01,15.40
2012,07,04,13,02,15.50
2012,07,04,13,03,15.60
2012,07,04,13,04,15.60
2012,07,04,13,05,15.70
2012,07,04,13,06,15.80
2012,07,04,13,07,15.80
2012,07,04,13,08,15.80
2012,07,04,13,09,15.80
2012,07,04,13,10,15.70
2012,07,04,13,11,15.60
2012,07,04,13,12,15.60
2012,07,04,13,13,15.50
2012,07,04,13,14,15.60
2012,07,04,13,15,15.60
2012,07,04,13,16,15.50
2012,07,04,13,17,15.50
2012,07,04,13,18,15.40
2012,07,04,13,19,15.40
2012,07,04,13,20,15.40
2012,07,04,13,21,15.40
2012,07,04,13,22,15.40
2012,07,04,13,23,15.50
2012,07,04,13,24,15.50
2012,07,04,13,25,15.60
2012,07,04,13,26,15.70
2012,07,04,13,27,15.90
2012,07,04,13,28,16.10
2012,07,04,13,29,16.30
2012,07,04,13,30,16.40
2012,07,04,13,31,16.50
2012,07,04,13,32,16.60
2012,07,04,13,33,16.50
2012,07,04,13,34,16.40
2012,07,04,13,35,16.20
2012,07,04,13,36,16.10
2012,07,04,13,37,15.90
2012,07,04,13,38,15.80
2012,07,04,13,39,15.80
2012,07,04,13,40,15.80
2012,07,04,13,41,15.80
2012,07,04,13,42,15.90
2012,07,04,13,43,15.90
2012,07,04,13,44,16.10
2012,07,04,13,45,16.20
2012,07,04,13,46,16.30
2012,07,04,13,47,16.40
2012,07,04,13,48,16.30
2012,07,04,13,49,16.30
2012,07,04,13,50,16.30
2012,07,04,13,51,16.30
2012,07,04,13,52,16.30
2012,07,04,13,53,16.20
2012,07,04,13,54,16.20
2012,07,04,13,55,16.20
2012,07,04,13,56,16.10
2012,07,04,13,57,16.10
2012,07,04,13,58,16.10
2012,07,04,13,59,16.20
2012,07,04,14,00,16.30
2012,07,04,14,01,16.50
2012,07,04,14,02,16.60
2012,07,04,14,03,16.70
2012,07,04,14,04,16.70
2012,07,04,14,05,16.70
2012,07,04,14,06,16.70
2012,07,04,14,07,16.60
2012,07,04,14,08,16.50
2012,07,04,14,09,16.40
2012,07,04,14,10,16.50
2012,07,04,14,11,16.60
2012,07,04,14,12,16.70
2012,07,04,14,13,16.70
2012,07,04,14,14,16.70
2012,07,04,14,15,16.60
2012,07,04,14,16,16.70
2012,07,04,14,17,16.70
2012,07,04,14,18,16.70
2012,07,04,14,19,16.70
2012,07,04,14,20,16.80
2012,07,04,14,21,16.80
2012,07,04,14,22,16.80
2012,07,04,14,23,16.80
2012,07,04,14,24,16.80
2012,07,04,14,25,17.00
2012,07,04,14,26,17.00
2012,07,04,14,27,17.10
2012,07,04,14,28,17.30
2012,07,04,14,29,17.50
2012,07,04,14,30,17.60
2012,07,04,14,31,17.60
2012,07,04,14,32,17.60
2012,07,04,14,33,17.50
2012,07,04,14,34,17.50
2012,07,04,14,35,17.50
2012,07,04,14,36,17.50
2012,07,04,14,37,17.40
2012,07,04,14,38,17.40
2012,07,04,14,39,17.40
2012,07,04,14,40,17.40
2012,07,04,14,41,17.30
2012,07,04,14,42,17.30
2012,07,04,14,43,17.30
2012,07,04,14,44,17.20
2012,07,04,14,45,17.10
2012,07,04,14,46,17.10
2012,07,04,14,47,17.10
2012,07,04,14,48,17.10
2012,07,04,14,49,17.20
2012,07,04,14,50,17.30
2012,07,04,14,51,17.40
2012,07,04,14,52,17.50
2012,07,04,14,53,17.50
2012,07,04,14,54,17.40
2012,07,04,14,55,17.50
2012,07,04,14,56,17.50
2012,07,04,14,57,17.60
2012,07,04,14,58,17.60
2012,07,04,14,59,17.70
2012,07,04,15,00,17.80
2012,07,04,15,01,17.80
2012,07,04,15,02,17.70
2012,07,04,15,03,17.60
2012,07,04,15,04,17.60
2012,07,04,15,05,17.50
2012,07,04,15,06,17.40
2012,07,04,15,07,17.30
2012,07,04,15,08,17.30
2012,07,04,15,09,17.30
2012,07,04,15,10,17.30
2012,07,04,15,11,17.20
2012,07,04,15,12,17.20
2012,07,04,15,13,17.10
2012,07,04,15,14,17.10
2012,07,04,15,15,17.00
2012,07,04,15,16,17.00
2012,07,04,15,17,16.90
2012,07,04,15,18,16.90
2012,07,04,15,19,16.90
2012,07,04,15,20,16.90
2012,07,04,15,21,17.00
2012,07,04,15,22,17.00
2012,07,04,15,23,17.10
2012,07,04,15,24,17.10
2012,07,04,15,25,17.20
2012,07,04,15,26,17.20
2012,07,04,15,27,17.30
2012,07,04,15,28,17.30
2012,07,04,15,29,17.40
2012,07,04,15,30,17.40
2012,07,04,15,31,17.40
2012,07,04,15,32,17.40
2012,07,04,15,33,17.30
2012,07,04,15,34,17.30
2012,07,04,15,35,17.30
2012,07,04,15,36,17.30
2012,07,04,15,37,17.30
2012,07,04,15,38,17.30
2012,07,04,15,39,17.20
2012,07,04,15,40,17.20
2012,07,04,15,41,17.20
2012,07,04,15,42,17.20
2012,07,04,15,43,17.30
2012,07,04,15,44,17.30
2012,07,04,15,45,17.30
2012,07,04,15,46,17.20
2012,07,04,15,47,17.20
2012,07,04,15,48,17.20
2012,07,04,15,49,17.20
2012,07,04,15,50,17.20
2012,07,04,15,51,17.20
2012,07,04,15,52,17.20
2012,07,04,15,53,17.30
2012,07,04,15,54,17.40
2012,07,04,15,55,17.50
2012,07,04,15,56,17.70
2012,07,04,15,57,17.70
2012,07,04,15,58,17.60
2012,07,04,15,59,17.50
2012,07,04,16,00,17.40
2012,07,04,16,01,17.40
2012,07,04,16,02,17.30
2012,07,04,16,03,17.30
2012,07,04,16,04,17.30
2012,07,04,16,05,17.20
2012,07,04,16,06,17.30
2012,07,04,16,07,17.30
2012,07,04,16,08,17.40
2012,07,04,16,09,17.50
2012,07,04,16,10,17.50
2012,07,04,16,11,17.60
2012,07,04,16,12,17.50
2012,07,04,16,13,17.40
2012,07,04,16,14,17.30
2012,07,04,16,15,17.20
2012,07,04,16,16,17.10
2012,07,04,16,17,17.10
2012,07,04,16,18,17.00
2012,07,04,16,19,17.00
2012,07,04,16,20,16.90
2012,07,04,16,21,16.90
2012,07,04,16,22,16.90
2012,07,04,16,23,16.90
2012,07,04,16,24,17.00
2012,07,04,16,25,17.00
2012,07,04,16,26,17.00
2012,07,04,16,27,17.10
2012,07,04,16,28,17.20
2012,07,04,16,29,17.30
2012,07,04,16,30,17.30
2012,07,04,16,31,17.30
2012,07,04,16,32,17.30
2012,07,04,16,33,17.30
2012,07,04,16,34,17.30
2012,07,04,16,35,17.30
2012,07,04,16,36,17.40
2012,07,04,16,37,17.50
2012,07,04,16,38,17.50
2012,07,04,16,39,17.70
2012,07,04,16,40,17.70
2012,07,04,16,41,17.80
2012,07,04,16,42,17.80
2012,07,04,16,43,17.70
2012,07,04,16,44,17.70
2012,07,04,16,45,17.70
2012,07,04,16,46,17.70
2012,07,04,16,47,17.80
2012,07,04,16,48,17.90
2012,07,04,16,49,18.00
2012,07,04,16,50,18.10
2012,07,04,16,51,18.10
2012,07,04,16,52,18.10
2012,07,04,16,53,18.20
2012,07,04,16,54,18.20
2012,07,04,16,55,18.20
2012,07,04,16,56,18.20
2012,07,04,16,57,18.30
2012,07,04,16,58,18.30
2012,07,04,16,59,18.40
2012,07,04,17,00,18.40
2012,07,04,17,01,18.30
2012,07,04,17,02,18.20
2012,07,04,17,03,18.20
2012,07,04,17,04,18.20
2012,07,04,17,05,18.20
2012,07,04,17,06,18.20
2012,07,04,17,07,18.10
2012,07,04,17,08,18.10
2012,07,04,17,09,18.10
2012,07,04,17,10,18.10
2012,07,04,17,11,18.10
2012,07,04,17,12,18.20
2012,07,04,17,13,18.20
2012,07,04,17,14,18.20
2012,07,04,17,15,18.20
2012,07,04,17,16,18.20
2012,07,04,17,17,18.20
2012,07,04,17,18,18.30
2012,07,04,17,19,18.20
2012,07,04,17,20,18.20
2012,07,04,17,21,18.20
2012,07,04,17,22,18.10
2012,07,04,17,23,18.10
2012,07,04,17,24,18.00
2012,07,04,17,25,17.90
2012,07,04,17,26,17.90
2012,07,04,17,27,17.90
2012,07,04,17,28,18.00